Simultaneous Nadir Overpasses (SNOs) Predictions

Prediction of SNOs between AQUA and GOES-15 Satellite Orbit:

Table of predicted SNOs for the next 14.0 days since TLE Epoch: 11/25/2016
Index Date Time (AQUA) AQUA Lat,Lon GOES-15 Lat,Lon Distance(km) Time Diff (sec)
1 11/27/2016 10:31:33 -0.28,-134.14 0.01,-135.40 143.19 80
2 11/27/2016 22:52:57 -0.85,-139.33 0.01,-135.36 451.49 80
3 11/29/2016 10:19:22 -0.91,-131.19 0.02,-135.40 480.16 80
4 11/29/2016 22:40:46 -0.21,-136.38 0.00,-135.37 114.60 80
5 12/01/2016 22:28:35 0.43,-133.42 -0.00,-135.37 221.56 80
6 12/02/2016 10:49:51 0.64,-138.58 -0.02,-135.40 361.19 80
7 12/04/2016 10:37:39 0.06,-135.62 -0.01,-135.39 25.97 80
8 12/06/2016 10:25:28 -0.60,-132.66 -0.01,-135.38 308.85 80
9 12/06/2016 22:46:52 -0.51,-137.85 0.03,-135.33 286.51 80
10 12/08/2016 22:34:40 0.10,-134.89 0.03,-135.31 47.64 80




NCC Satellite Simultaneous Nadir Overpasses (SNOs) Prediction Service
